This is the latest recevied weather packets stored in our database for station/object VE6EN. If no packets are shown the sender has not sent any weather packets the latest 10 day(s).
| Time | Temp. | Humidity | Pressure | Rain* | Wind** | Luminosity | Snow |
|---|---|---|---|---|---|---|---|
| 1777920600 | 10.56° C | 31% | 1015 hPa | 0 mm | - | - | - |
| 1777919998 | 10.56° C | 31% | 1015.2 hPa | 0 mm | - | - | - |
| 1777919399 | 10.56° C | 31% | 1015.2 hPa | 0 mm | - | - | - |
| 1777918804 | 10.56° C | 31% | 1015.3 hPa | 0 mm | - | - | - |
| 1777918202 | 10.56° C | 33% | 1015.3 hPa | 0 mm | - | - | - |
| 1777917600 | 10° C | 31% | 1015.4 hPa | 0 mm | - | - | - |
| 1777916999 | 10° C | 33% | 1015.3 hPa | 0 mm | - | - | - |
| 1777916399 | 9.44° C | 37% | 1015.3 hPa | 0 mm | - | - | - |
| 1777915800 | 9.44° C | 36% | 1015.4 hPa | 0 mm | - | - | - |
| 1777915199 | 8.89° C | 44% | 1015.3 hPa | 0 mm | - | - | - |
| 1777914599 | 8.89° C | 45% | 1015.4 hPa | 0 mm | - | - | - |
| 1777914002 | 8.33° C | 47% | 1015.4 hPa | 0 mm | - | - | - |
| 1777913398 | 7.78° C | 46% | 1015.5 hPa | 0 mm | - | - | - |
| 1777912800 | 7.78° C | 46% | 1015.5 hPa | 0 mm | - | - | - |
| 1777912199 | 7.22° C | 49% | 1015.4 hPa | 0 mm | - | - | - |
| 1777911600 | 6.67° C | 51% | 1015.5 hPa | 0 mm | - | - | - |
| 1777911000 | 6.67° C | 52% | 1015.6 hPa | 0 mm | - | - | - |
| 1777910404 | 6.11° C | 53% | 1015.4 hPa | 0 mm | - | - | - |
| 1777909799 | 5.56° C | 54% | 1015.5 hPa | 0 mm | - | - | - |
| 1777909202 | 5.56° C | 54% | 1015.5 hPa | 0 mm | - | - | - |
| 1777908599 | 5° C | 56% | 1015.5 hPa | 0 mm | - | - | - |
| 1777907999 | 5° C | 55% | 1015.4 hPa | 0 mm | - | - | - |
| 1777907399 | 5° C | 56% | 1015.4 hPa | 0 mm | - | - | - |
| 1777906802 | 5° C | 58% | 1015.4 hPa | 0 mm | - | - | - |
| 1777906199 | 5° C | 60% | 1015.3 hPa | 0 mm | - | - | - |
* Rain latest hour (hover to see other rain measurements)
** Current wind speed in m/s (hover to see current wind gust speed)